When you browse on this site, cookies collect data to enhance your experience and personalize the content and advertising you see.
Visit our Privacy Policy to learn more. By continuing to use the site, you agree to this use of cookies and data.
  • In Österreich
  • Länderverzeichnis
  • Für 7 Tage
  • Wassertemperatur
  • Satellitenkarten
  • Wetterkarte
  • News
  • Widgets
  • user-avatar
    Anmelden

    Stündliche Wetter Jalalabad

    Heute, 26 Juni, Mittwoch

    Zeit Temperatur Niederschläge Wind Luftdruck Luftfeuchtigkeit
    00:00 +33°C° 0 mm 1 m/S 707 mmHg 27%
    01:00 +32°C° 0 mm 1 m/S 707 mmHg 28%
    02:00 +31°C° 0 mm 1 m/S 706 mmHg 29%
    03:00 +31°C° 0 mm 1 m/S 706 mmHg 28%
    04:00 +30°C° 0 mm 1 m/S 706 mmHg 27%
    05:00 +30°C° 0 mm 1 m/S 706 mmHg 26%
    06:00 +31°C° 0 mm 1 m/S 706 mmHg 23%
    07:00 +32°C° 0 mm 1 m/S 707 mmHg 20%
    08:00 +34°C° 0 mm 1 m/S 707 mmHg 17%
    09:00 +35°C° 0 mm 1 m/S 707 mmHg 15%
    10:00 +36°C° 0 mm 1 m/S 706 mmHg 14%
    11:00 +37°C° 0 mm 1 m/S 706 mmHg 12%
    12:00 +39°C° 0 mm 2 m/S 706 mmHg 11%
    13:00 +40°C° 0 mm 2 m/S 706 mmHg 10%
    14:00 +41°C° 0 mm 2 m/S 705 mmHg 9%
    15:00 +41°C° 0 mm 2 m/S 705 mmHg 8%
    16:00 +41°C° 0 mm 1 m/S 704 mmHg 8%
    17:00 +41°C° 0 mm 1 m/S 704 mmHg 7%
    18:00 +40°C° 0 mm 1 m/S 704 mmHg 9%
    19:00 +39°C° 0 mm 1 m/S 704 mmHg 11%
    20:00 +37°C° 0 mm 1 m/S 704 mmHg 14%
    21:00 +36°C° 0 mm 1 m/S 704 mmHg 15%
    22:00 +35°C° 0 mm 1 m/S 704 mmHg 17%
    23:00 +35°C° 0 mm 1 m/S 704 mmHg 19%

    Morgen, 27 Juni, Donnerstag

    Zeit Temperatur Niederschläge Wind Luftdruck Luftfeuchtigkeit
    00:00 +34°C° 0 mm 1 m/S 704 mmHg 20%
    01:00 +33°C° 0 mm 1 m/S 704 mmHg 20%
    02:00 +33°C° 0 mm 1 m/S 703 mmHg 20%
    03:00 +32°C° 0 mm 2 m/S 703 mmHg 20%
    04:00 +32°C° 0 mm 2 m/S 703 mmHg 20%
    05:00 +31°C° 0 mm 2 m/S 703 mmHg 20%
    06:00 +32°C° 0 mm 2 m/S 703 mmHg 18%
    07:00 +35°C° 0 mm 2 m/S 704 mmHg 16%
    08:00 +36°C° 0 mm 2 m/S 704 mmHg 14%
    09:00 +38°C° 0 mm 2 m/S 704 mmHg 13%
    10:00 +39°C° 0 mm 2 m/S 704 mmHg 12%
    11:00 +40°C° 0 mm 2 m/S 704 mmHg 11%
    12:00 +41°C° 0 mm 2 m/S 704 mmHg 10%
    13:00 +41°C° 0 mm 2 m/S 703 mmHg 9%
    14:00 +42°C° 0 mm 1 m/S 703 mmHg 8%
    15:00 +42°C° 0 mm 2 m/S 703 mmHg 9%
    16:00 +43°C° 0 mm 4 m/S 702 mmHg 9%
    17:00 +43°C° 0 mm 5 m/S 702 mmHg 9%
    18:00 +41°C° 0 mm 4 m/S 702 mmHg 14%
    19:00 +38°C° 0 mm 3 m/S 702 mmHg 18%
    20:00 +36°C° 0 mm 2 m/S 702 mmHg 22%
    21:00 +36°C° 0 mm 2 m/S 702 mmHg 23%
    22:00 +35°C° 0 mm 2 m/S 702 mmHg 23%
    23:00 +34°C° 0 mm 1 m/S 703 mmHg 24%

    übermorgen, 28 Juni, Freitag

    Zeit Temperatur Niederschläge Wind Luftdruck Luftfeuchtigkeit
    00:00 +33°C° 0 mm 1 m/S 702 mmHg 23%
    01:00 +33°C° 0 mm 1 m/S 702 mmHg 22%
    02:00 +32°C° 0 mm 1 m/S 702 mmHg 20%
    03:00 +32°C° 0 mm 1 m/S 702 mmHg 19%
    04:00 +31°C° 0 mm 1 m/S 702 mmHg 19%
    05:00 +30°C° 0 mm 2 m/S 702 mmHg 18%
    06:00 +32°C° 0 mm 2 m/S 702 mmHg 16%
    07:00 +35°C° 0 mm 2 m/S 703 mmHg 14%
    08:00 +35°C° 0 mm 1 m/S 703 mmHg 12%
    09:00 +38°C° 0 mm 2 m/S 703 mmHg 11%
    10:00 +39°C° 0 mm 2 m/S 703 mmHg 10%
    11:00 +40°C° 0 mm 2 m/S 703 mmHg 9%
    12:00 +41°C° 0 mm 2 m/S 703 mmHg 8%
    13:00 +42°C° 0 mm 2 m/S 702 mmHg 8%
    14:00 +42°C° 0 mm 1 m/S 702 mmHg 8%
    15:00 +43°C° 0 mm 3 m/S 702 mmHg 9%
    16:00 +43°C° 0 mm 4 m/S 702 mmHg 9%
    17:00 +43°C° 0 mm 5 m/S 701 mmHg 10%
    18:00 +42°C° 0 mm 4 m/S 702 mmHg 13%
    19:00 +39°C° 0 mm 3 m/S 702 mmHg 16%
    20:00 +38°C° 0 mm 2 m/S 702 mmHg 19%
    21:00 +37°C° 0 mm 2 m/S 702 mmHg 21%
    22:00 +35°C° 0 mm 1 m/S 702 mmHg 23%
    23:00 +32°C° 0 mm 0 m/S 703 mmHg 24%

    29 Juni, Samstag

    Zeit Temperatur Niederschläge Wind Luftdruck Luftfeuchtigkeit
    00:00 +34°C° 0 mm 1 m/S 702 mmHg 24%
    01:00 +33°C° 0 mm 1 m/S 702 mmHg 23%
    02:00 +33°C° 0 mm 1 m/S 702 mmHg 22%
    03:00 +32°C° 0 mm 1 m/S 702 mmHg 21%
    04:00 +32°C° 0 mm 1 m/S 702 mmHg 21%
    05:00 +31°C° 0 mm 1 m/S 702 mmHg 20%
    06:00 +33°C° 0 mm 1 m/S 702 mmHg 17%
    07:00 +35°C° 0 mm 1 m/S 702 mmHg 14%
    08:00 +37°C° 0 mm 1 m/S 703 mmHg 11%
    09:00 +39°C° 0 mm 1 m/S 703 mmHg 10%
    10:00 +40°C° 0 mm 1 m/S 703 mmHg 9%
    11:00 +42°C° 0 mm 1 m/S 702 mmHg 9%
    12:00 +42°C° 0 mm 1 m/S 702 mmHg 8%
    13:00 +43°C° 0 mm 1 m/S 702 mmHg 8%
    14:00 +45°C° 0 mm 2 m/S 702 mmHg 8%
    15:00 +44°C° 0 mm 3 m/S 702 mmHg 11%
    16:00 +45°C° 0 mm 5 m/S 701 mmHg 13%
    17:00 +44°C° 0 mm 7 m/S 701 mmHg 16%
    18:00 +42°C° 0 mm 5 m/S 701 mmHg 18%
    19:00 +40°C° 0 mm 3 m/S 702 mmHg 19%
    20:00 +39°C° 0 mm 1 m/S 702 mmHg 21%
    21:00 +37°C° 0 mm 1 m/S 702 mmHg 22%
    22:00 +37°C° 0 mm 1 m/S 702 mmHg 22%
    23:00 +36°C° 0 mm 1 m/S 702 mmHg 23%

    30 Juni, Sonntag

    Zeit Temperatur Niederschläge Wind Luftdruck Luftfeuchtigkeit
    00:00 +36°C° 0 mm 1 m/S 702 mmHg 23%
    01:00 +35°C° 0 mm 1 m/S 702 mmHg 23%
    02:00 +35°C° 0 mm 1 m/S 701 mmHg 23%
    03:00 +34°C° 0 mm 1 m/S 701 mmHg 23%
    04:00 +33°C° 0 mm 1 m/S 701 mmHg 23%
    05:00 +33°C° 0 mm 1 m/S 701 mmHg 23%
    06:00 +35°C° 0 mm 1 m/S 701 mmHg 21%
    07:00 +36°C° 0 mm 1 m/S 702 mmHg 18%
    08:00 +39°C° 0 mm 1 m/S 702 mmHg 16%
    09:00 +40°C° 0 mm 1 m/S 702 mmHg 15%
    10:00 +41°C° 0 mm 1 m/S 702 mmHg 13%
    11:00 +43°C° 0 mm 1 m/S 702 mmHg 12%
    12:00 +43°C° 0 mm 1 m/S 702 mmHg 11%
    13:00 +44°C° 0 mm 1 m/S 702 mmHg 11%
    14:00 +45°C° 0 mm 1 m/S 702 mmHg 10%
    15:00 +46°C° 0 mm 3 m/S 702 mmHg 11%
    16:00 +47°C° 0 mm 4 m/S 702 mmHg 11%
    17:00 +47°C° 0 mm 5 m/S 701 mmHg 12%
    18:00 +44°C° 0 mm 4 m/S 702 mmHg 14%
    19:00 +43°C° 0 mm 3 m/S 702 mmHg 17%
    20:00 +40°C° 0 mm 2 m/S 702 mmHg 20%
    21:00 +39°C° 0 mm 2 m/S 702 mmHg 21%
    22:00 +38°C° 0 mm 2 m/S 702 mmHg 23%
    23:00 +36°C° 0 mm 1 m/S 703 mmHg 24%

    1 Juli, Montag

    Zeit Temperatur Niederschläge Wind Luftdruck Luftfeuchtigkeit
    00:00 +36°C° 0 mm 1 m/S 702 mmHg 24%
    01:00 +35°C° 0 mm 1 m/S 702 mmHg 24%
    02:00 +34°C° 0 mm 1 m/S 702 mmHg 25%
    03:00 +34°C° 0 mm 1 m/S 702 mmHg 24%
    04:00 +33°C° 0 mm 1 m/S 702 mmHg 23%
    05:00 +33°C° 0 mm 1 m/S 702 mmHg 22%
    06:00 +35°C° 0 mm 2 m/S 702 mmHg 18%
    07:00 +37°C° 0 mm 2 m/S 703 mmHg 15%
    08:00 +39°C° 0 mm 2 m/S 703 mmHg 12%
    09:00 +42°C° 0 mm 3 m/S 703 mmHg 11%
    10:00 +43°C° 0 mm 3 m/S 703 mmHg 9%
    11:00 +44°C° 0 mm 4 m/S 703 mmHg 8%
    12:00 +45°C° 0 mm 3 m/S 702 mmHg 7%
    13:00 +46°C° 0 mm 3 m/S 702 mmHg 6%
    14:00 +47°C° 0 mm 3 m/S 702 mmHg 5%
    15:00 +48°C° 0 mm 3 m/S 702 mmHg 5%
    16:00 +48°C° 0 mm 3 m/S 701 mmHg 5%
    17:00 +48°C° 0 mm 3 m/S 701 mmHg 4%
    18:00 +47°C° 0 mm 3 m/S 701 mmHg 6%
    19:00 +45°C° 0 mm 4 m/S 701 mmHg 7%
    20:00 +43°C° 0 mm 4 m/S 702 mmHg 8%
    21:00 +42°C° 0 mm 4 m/S 702 mmHg 9%
    22:00 +41°C° 0 mm 4 m/S 702 mmHg 9%
    23:00 +40°C° 0 mm 4 m/S 702 mmHg 10%
    Mehr zeigen